Location: Prairie Dale
(45.6972°N, 104.5033°W)
Time: 01:42:39
(UTC+00:00)

M-CUBED/EXP-1 PRIME - Visible Passes

Search period start: 26 June 2022 00:00
Search period end: 06 July 2022 00:00
Orbit: 423 x 634 km, 101.7° (Epoch: 25 June)

Date Brightness Start Highest point End Pass type
(mag) Time Alt. Az. Time Alt. Az. Time Alt. Az.
26 Jun ? 07:27:42 34° E 07:28:15 37° ENE 07:31:18 10° N visible
26 Jun ? 09:02:57 12° W 09:02:57 12° W 09:03:49 10° WNW visible
27 Jun ? 07:16:30 23° E 07:17:19 26° ENE 07:20:07 10° N visible
27 Jun ? 08:51:45 17° W 08:51:45 17° W 08:53:35 10° NW visible
28 Jun ? 07:05:16 16° E 07:06:25 19° ENE 07:08:50 10° NNE visible
28 Jun ? 08:40:31 25° W 08:40:31 25° W 08:42:58 10° NW visible
29 Jun ? 06:54:02 11° E 06:55:31 14° ENE 06:57:20 10° NNE visible
29 Jun ? 08:29:17 37° W 08:29:17 37° W 08:32:12 10° NW visible
30 Jun ? 06:43:59 10° ENE 06:44:38 10° NE 06:45:17 10° NE visible
30 Jun ? 08:18:02 58° WSW 08:18:02 58° WSW 08:21:19 10° NNW visible
01 Jul ? 08:06:46 78° SSE 08:06:58 90° W 08:10:19 10° NNW visible
02 Jul ? 07:55:30 53° ESE 07:55:56 59° ENE 07:59:15 10° NNW visible
03 Jul ? 07:44:12 35° E 07:44:54 40° ENE 07:48:06 10° N visible
03 Jul ? 09:19:27 12° W 09:19:27 12° W 09:20:32 10° WNW visible
04 Jul ? 07:32:54 24° E 07:33:54 28° ENE 07:36:52 10° N visible
04 Jul ? 09:08:09 18° W 09:08:09 18° W 09:10:14 10° NW visible
05 Jul ? 07:21:35 17° E 07:22:54 21° ENE 07:25:31 10° N visible
05 Jul ? 08:56:50 25° W 08:56:50 25° W 08:59:34 10° NW visible
